Find Starlink 34514

NORAD ID: 64416 Int'l Des: 2025-129 Owner: SPXS Country: US Constellation: starlink operational
LEOCIRCULAR

現在のビュー

3D地球を読み込み中...

Starlink 34514について

説明を読み込み中...

次回通過

Passes for default location (London). Set your location on the main map for personalized predictions.

高度履歴

Loading altitude history...

軌道要素

1 64416U 25129E 26149.55354990 .00002411 00000-0 20973-3 0 9994
2 64416 70.0014 230.4217 0003480 266.8000 93.2761 14.98333963 53400
Epoch: May 29, 2026 • Age: 18 hours

現在のステータス

高度 575.5 km
速度 7.57 km/s
衛星直下点 -8.92°S, 47.61°E
打ち上げ日 Jun 17, 2025
運用期間 0.9 years
タイプ internet

技術仕様

分類 Payload
質量 575.00 kg
乾燥質量 530.00 kg
総質量 575.00 kg
長さ 0.30 m
直径 4.10 m
スパン 29.00 m
形状 Box + pan
製造者 SPXS
バスタイプ Starlink V2MO
フェーズステータス In Orbit
所有者/国 SPXS/US

Most Searched